User: anonymous   Login
Location: Unspecified
(0.0000°N, 0.0000°E)
Time: 00:47:56
(UTC+00:00)
Language:

STARLINK-34566 - Orbit

View from above orbital plane
View from above orbital plane
View from above satellite
View from above satellite

Ground track
Ground track

The orbit is defined by the following mean orbital elements,

1 64765U          26144.99259778 +.00000000 +00000-0 +54379-3 0 00005
2 64765  53.1601 247.6476 0001069  66.9478 293.1637 15.34402148    01
Epoch (UTC): 24 May 2026 23:49:20
Eccentricity: 0.0001069
inclination: 53.1601°
perigee height: 462 km
apogee height: 463 km
right ascension of ascending node: 247.6476°
argument of perigee: 66.9478°
revolutions per day: 15.34402148
mean anomaly at epoch: 293.1637°

The dashed part of the orbit path shows where the satellite is in the earth's shadow,  

DLR